Regional Weather Roundup
Issued by NWS Charleston, SC

Current Version | Previous Version | Graphics & Text | Print | Product List | Glossary On
Versions: 1 2 3 4 5 6 7 8 9 10 11 12 13 14 15 16 17 18 19 20 21 22 23 24 25 26 27 28 29 30 31 32 33 34 35 36 37 38 39 40 41 42 43 44 45 46 47 48 49 50
000
ASUS42 KCHS 290925
RWRCHS

REGIONAL WEATHER ROUNDUP
NATIONAL WEATHER SERVICE CHARLESTON SC
500 AM EDT TUE JUL 29 2014

NOTE: "FAIR" INDICATES FEW OR NO CLOUDS BELOW 12,000 FEET WITH NO
SIGNIFICANT WEATHER AND/OR OBSTRUCTIONS TO VISIBILITY.

NOT ALL STATIONS ARE QUALITY CONTROLLED BY THE NATIONAL
WEATHER SERVICE. USE DATA WITH CAUTION...ESPECIALLY
DEWPOINT OBSERVATIONS.

SCZ027-030-031-034>040-042>050-291000-
...SOUTH CAROLINA...

CITY           SKY/WX    TMP DP  RH WIND       PRES   REMARKS
N CHARLESTON   CLEAR     75  64  68 N8        29.86R
WATERFRONT PRK   N/A     79 N/A N/A N12         N/A
FORT JOHNSON   NOT AVBL
MOUNT PLEASANT FAIR      73  64  73 CALM      29.86R
JOHNS ISLAND   SUNNY     75  64  69 CALM      29.86R
PINOPOLIS        N/A     81  66  61 N14       29.78R
MONCKS CORNER    N/A     77  66  69 N9        29.87R
SUMMERVILLE    FAIR      70  70 100 CALM      29.88R
BEAUFORT MCAS  PTCLDY    75  67  76 N7        29.87R
BEAUFORT ARPT  FAIR      73  68  83 N5        29.86R
HILTON HEAD IS CLEAR     79  70  73 NW7       29.88R
GEORGETOWN     NOT AVBL
WALTERBORO     SUNNY     70  70 100 NW3       29.89R
ORANGEBURG     CLEAR     73  59  61 N6        29.89R
BARNWELL       FAIR      68  61  77 CALM      29.91R
AIKEN          FAIR      68  61  77 N3        29.95R
MANNING        FAIR      70  64  83 N5        29.89R
KINGSTREE      NOT AVBL
COLUMBIA       CLOUDY    75  59  57 CALM      29.90R
SUMTER         PTCLDY    68  60  76 NE5       29.88R
FLORENCE       MOCLDY    71  61  70 N7        29.89R
MYRTLE BEACH   MOCLDY    73  64  73 N9        29.86R
N MYRTLE BEACH PTCLDY    72  67  84 N7        29.85R

$$

GAZ063-065-086>088-099>101-113>116-118-119-134-136>141-150-291000-
...GEORGIA...

CITY           SKY/WX    TMP DP  RH WIND       PRES   REMARKS
SAVANNAH ARPT  MOCLDY    75  68  78 CALM      29.88R
HUNTER AAF     PTCLDY    76  68  75 NW8       29.86R
FORT STEWART   MOCLDY    74  69  83 W3        29.87R
STATESBORO     NOT AVBL
SYLVANIA       SUNNY     68  68  99 CALM      29.90R
CLAXTON        CLOUDY    73  70  88 NW3       29.90R
THOMSON        CLEAR     65  65 100 CALM      29.96S
AUGUSTA-BUSH   CLEAR     68  62  81 N6        29.90R
AUGUSTA-DANIEL CLEAR     73  59  61 N6        29.92R
SWAINSBORO     PTSUNNY   70  70 100 CALM      29.92S
VIDALIA          N/A     73  63  68 N5        29.91S
ALMA           NOT AVBL
WAYCROSS       PTCLDY    78  73  86 NW3       29.90F
JESUP          CLOUDY    77  72  83 W3        29.90R
BRUNSWICK      CLEAR     77  70  78 W5        29.89S
SAINT SIMONS   CLEAR     78  71  79 W7        29.88R

$$

SCZ027-028-034-036>038-045-046-048>050-GAZ119-141-291000-
...LAKE AND SUPPLEMENTAL COASTAL OBSERVATIONS...

STATION/POSITION TIME  TEMP    WIND        PRES    WAVE   SWELL
                       AIR SEA DIR/SP/G            HT/PER HT/PER/DIR
                 (UTC) (F)     (DEG/KT/KT) (MB)    (FT/S) (FT/S/D)
UPR LAKE MARION  NOT AVBL
WINYAH BAY       0900   74     350/  3     1010.0S
LAKE MURRAY      0900   71     340/  2/  5 1012.2S
ACE BASIN NERRS  0900   74     360/  1     1011.0S
FORT PULASKI     0900   76     300/  6/  8 1011.5R
SAPELO ISLAND    0900   78     270/  6     1012.0S

$$

ANZ835-935-AMZ111-154-330-350-352-354-374-450-454-472-291000-
...C-MAN AND BUOY OBSERVATIONS...

STATION/POSITION TIME  TEMP    WIND        PRES    WAVE   SWELL
                       AIR SEA DIR/SP/G            HT/PER HT/PER/DIR
                 (UTC) (F)     (DEG/KT/KT) (MB)    (FT/S) (FT/S/D)
FOLLY BEACH CMAN 0900   78     350/  9/ 12 1011.2R
BUOY 41004       0900   83 84   10/ 14/ 16 1008.9R   4/ 6   2/ 6
BUOY 41008       0900   82 85  320/ 14/ 16 1010.9R   3/ 4
5E ST. MARYS GA  0900      85                N/A     2/ 3
FRYING PAN BUOY  NOT AVBL
BUOY 41025       0900          VRB  6/  8  1010.4R   3/ 7   3/170/ 7
CAPE LOOKOUT NC  0900   76     360/  9/ 11 1010.3S
BUOY 41002       0755   82 81  240/ 17/ 21 1012.8    6/ 7   2/130/10
BUOY 41010       0900   84 84  250/ 14/ 17 1012.8R   4/ 5   2/120/ 8
BUOY 41012       NOT AVBL
ST AUGUSTINE FL  0900   80     260/  9/ 11 1012.8F
CAPERS NEARSHORE 0800   79      20/ 14/ 16   N/A
FRIPP NEARSHORE  NOT AVBL


$$


USA.gov is the U.S. government's official web portal to all federal, state and local government web resources and services.